Location: A�t �Alizem
(31.2076°N, 8.7872°W)
Time: 05:52:19
(UTC+00:00)

Cosmos 1805 Rocket - Pass Details

Date: 27 November 2020
Orbit: 605 x 631 km, 82.5° (Epoch: 25 January)

Event Time Altitude Azimuth Distance (km) Brightness Sun altitude
Rises 18:03:39 0° 352° (N) 2,920 6.9 -6.9°
Reaches altitude 10° 18:05:54 10° 351° (N) 2,006 6.1 -7.4°
Maximum altitude 18:10:21 78° 265° (W) 641 3.8 -8.3°
Drops below altitude 10° 18:14:44 10° 179° (S) 1,980 6.4 -9.2°
Sets 18:16:56 0° 178° (S) 2,878 7.2 -9.6°
